[[{"header":{"parameterUnit":"m.s-1","parameterCategory":1,"la1":30.2991,"la2":30.254,"lo1":-89.0895,"lo2":-89.0444,"dy":0.0017,"dx":0.0017,"nx":28,"ny":28,"refTime":"2023-10-12T09:00:00:Z","depth":0,"parameterNumber":2,"parameterNumberName":"U-component_of_WINDS"},"data":[0,0,0,0,0,0,0,0,0,0,0,0,0,0,0,0,0,0,0,0,0,0,0,0,0,0,0,0,0,0,0,0,0,0,0,0,0,0,0,0,0,0,0,0,0,0,0,0,0,0,0,0,0,0,0,0,0,0,-4.8122,-4.8125,0,-4.8391,-4.8394,-4.8397,-4.8334,-4.8329,-4.8323,-4.8319,-4.8594,-4.8606,-4.8618,0,0,0,0,0,0,0,0,0,0,0,0,0,-4.7555,-4.7566,-4.8122,-4.8125,-4.8129,-4.8391,-4.8394,-4.8398,-4.8335,-4.8328,-4.8322,-4.8316,-4.859,-4.8604,-4.8619,0,0,0,0,0,0,0,0,0,0,0,0,0,-4.781,-4.7569,-4.8121,-4.8129,-4.8132,-4.839,-4.8395,-4.8399,-4.8336,-4.8328,-4.832,-4.8313,-4.8585,-4.8603,-4.8621,-4.8888,0,0,-4.8676,-4.8684,0,0,0,0,0,0,0,0,-4.7796,-4.7831,-4.8124,-4.8129,-4.8133,-4.8321,-4.8295,-4.8563,-4.8338,-4.8259,-4.8318,-4.8309,-4.8509,-4.8533,-4.8601,-4.8901,-4.8913,-4.8678,-4.8689,-4.8697,-4.8702,0,0,0,0,0,0,0,-4.7778,-4.7819,-4.8228,-4.8128,-4.8134,-4.8119,-4.8147,-4.8346,-4.8424,-4.8265,-4.8261,-4.8294,-4.851,-4.8583,-4.8607,-4.8917,-4.8677,-4.8694,-4.8705,-4.8712,-4.9455,-4.9463,0,0,0,0,0,0,-4.7757,-4.7805,-4.822,-4.8236,-4.7942,-4.8136,-4.8167,-4.8268,-4.8422,-4.8438,-4.83,-4.829,-4.8556,-4.8585,-4.8616,-4.8943,-4.8697,-4.8714,-4.8724,-4.9446,-4.9457,-4.9466,0,0,0,0,0,0,-4.7745,-4.7795,-4.8209,-4.802,-4.8072,-4.8154,-4.8268,-4.8278,-4.8351,-4.8448,-4.8462,-4.836,-4.8551,-4.859,-4.8822,-4.8952,-4.8722,-4.8738,-4.9436,-4.9449,-4.9462,-4.9597,0,0,0,0,0,0,-4.7729,-4.7791,-4.7892,-4.8023,-4.8082,-4.841,-4.8276,-4.8289,-4.8383,-4.8372,-4.8509,-4.8524,-4.8548,-4.8795,-4.884,-4.8973,-4.8753,-4.9425,-4.9442,-4.9457,-4.9582,-4.9614,-4.9641,0,0,0,0,0,-4.7709,-4.7919,-4.7898,-4.7948,-4.8211,-4.8418,-4.8452,-4.8476,-4.8393,-4.8497,-4.856,-4.8519,-4.893,-4.882,-4.887,-4.901,-4.9417,-4.9437,-4.9456,-4.9568,-4.9607,-4.964,0,0,0,0,0,0,-4.78,-4.7936,-4.7914,-4.8172,-4.8284,-4.8407,-4.8538,-4.8515,-4.8653,-4.8637,-4.866,-4.8692,-4.8929,-4.8992,-4.8867,-4.9279,-4.9161,-4.9192,-4.923,-4.9267,-4.9296,-4.9278,-4.8768,0,0,0,0,0,-4.785,-4.8007,-4.8117,-4.8334,-4.8391,-4.8455,-4.8546,-4.8555,-4.8672,-4.8719,-4.8799,-4.8914,-4.907,-4.9171,-4.9319,-4.9589,-4.9621,-4.9711,-4.974,-4.9764,-4.9791,-4.9944,-4.9987,-4.9532,-4.9531,-4.9531,0,0,-4.7956,-4.8049,-4.8146,-4.8355,-4.8442,-4.8606,-4.8496,-4.8671,-4.8794,-4.8746,-4.8971,-4.9034,-4.9164,-4.9418,-4.9533,-4.9477,-4.9924,-4.9789,-4.9808,-4.9822,-4.9969,-5.0012,-5.005,-4.9545,-4.9543,-4.954,0,0,-4.8232,-4.8316,-4.8509,-4.86,-4.8735,-4.8777,-4.8823,-4.8951,-4.8992,-4.9218,-4.9187,-4.9332,-4.9597,-4.9693,-4.9777,-5.0093,-5.0063,-5.014,-5.0296,-5.0445,-5.048,-5.0512,-5.063,-5.0671,-5.0166,-5.0167,-5.0167,0,-4.8346,-4.859,-4.861,-4.8792,-4.8886,-4.8851,-4.9048,-4.9135,-4.9311,-4.9378,-4.9312,-4.9649,-4.9733,-5.0012,-5.0089,-5.0156,-5.0213,-5.0126,-5.0473,-5.0506,-5.0536,-5.0648,-5.0692,-5.0176,-5.0175,-5.0174,-5.0173,0,-4.8726,-4.8896,-4.9035,-4.9209,-4.9318,-4.9506,-4.9557,-4.9665,-4.9665,-4.9715,-4.9948,-5.0048,-5.0219,-5.0284,-5.0285,-5.0564,-5.0526,-5.0467,-5.035,-5.0588,-5.0694,-5.0737,-5.0189,-5.0185,-5.0183,-5.018,0,0,-4.9067,-4.9252,-4.9303,-4.9383,-4.9531,-4.9664,-4.9851,-5.0018,-5.0113,-5.0236,-5.0396,-5.0624,-5.0571,-5.0666,-5.0677,-5.0807,-5.1058,-5.0733,-5.0736,-5.0794,-5.1377,-5.1424,-5.1473,-5.1037,-5.1045,-5.1052,-5.1368,0,-4.9359,-4.969,-4.9716,-5.0015,-5.0175,-5.0146,-5.0309,-5.0419,-5.0471,-5.0614,-5.067,-5.0834,-5.075,-5.0808,-5.0935,-5.1,-5.1176,-5.0977,-5.1189,-5.1196,-5.1161,-5.1528,-5.1577,-5.187,-5.1409,-5.1416,-5.1421,0,-4.9745,-4.9883,-5.0198,-5.0328,-5.0396,-5.0543,-5.0701,-5.0838,-5.0962,-5.0991,-5.1099,-5.1094,-5.1288,-5.1163,-5.1433,-5.1298,-5.1386,-5.1431,-5.1443,-5.1467,-5.1325,-5.1565,-5.1964,-5.2009,-5.1485,-5.148,-5.1476,0,-4.9968,-5.0231,-5.0456,-5.0525,-5.068,-5.0785,-5.0855,-5.0972,-5.1072,-5.121,-5.1276,-5.1434,-5.1522,-5.1645,-5.1683,-5.1587,-5.1955,-5.1831,-5.1987,-5.1986,-5.2068,-5.2063,-5.249,-5.2118,-5.2117,-5.2116,-5.2116,0,-5.0294,-5.049,-5.0559,-5.0697,-5.0916,-5.0944,-5.1161,-5.1224,-5.1329,-5.1481,-5.1463,-5.1606,-5.1646,-5.1797,-5.1827,-5.205,-5.2088,-5.2119,-5.2126,-5.2123,-5.212,-5.2184,-5.2166,-5.2128,-5.2126,-5.2123,-5.2121,0,-5.0581,-5.0635,-5.0878,-5.1007,-5.1044,-5.12,-5.1311,-5.1445,-5.1494,-5.1687,-5.1733,-5.1812,-5.1989,-5.2038,-5.2249,-5.227,-5.2533,-5.2519,-5.2492,-5.2493,-5.2648,-5.2635,-5.3135,-5.3204,-5.2782,-5.2786,-5.2789,0,-5.0788,-5.0938,-5.1084,-5.1185,-5.126,-5.1421,-5.1525,-5.1559,-5.1667,-5.1823,-5.194,-5.2114,-5.2256,-5.254,-5.2617,-5.2779,-5.2771,-5.2935,-5.2796,-5.279,-5.2779,-5.2772,-5.2789,-5.2963,-5.2967,-5.2971,-5.2974,0,-5.115,-5.117,-5.132,-5.1482,-5.1606,-5.1734,-5.1856,-5.194,-5.1992,-5.2115,-5.2297,-5.2407,-5.2625,-5.28,-5.2965,-5.3038,-5.3017,-5.3017,-5.3063,-5.3063,-5.3044,-5.3061,-5.2569,-5.3006,-5.3003,-5.3,-5.2999,-5.2997,-5.1406,-5.154,-5.1666,-5.1834,-5.1931,-5.2047,-5.2181,-5.2249,-5.2401,-5.2582,-5.2592,-5.279,-5.2914,-5.3135,-5.3217,-5.3373,-5.3325,-5.3389,-5.3407,-5.3423,-5.3439,-5.3016,-5.3403,-5.3402,-5.3401,-5.34,-5.34,0,-5.1772,-5.1852,-5.2006,-5.2181,-5.2315,-5.2282,-5.2418,-5.2532,-5.2707,-5.2825,-5.2966,-5.3177,-5.3347,-5.3438,-5.3609,-5.3717,-5.3712,-5.3761,-5.3755,-5.3773,-5.347,-5.3416,-5.3762,-5.3762,-5.3762,-5.3762,-5.3762,-5.3762,-5.1978,-5.2205,-5.2241,-5.2516,-5.2594,-5.2789,-5.287,-5.2978,-5.3073,-5.331,-5.3452,-5.351,-5.3619,-5.3798,-5.3954,-5.3976,-5.4042,-5.4098,-5.4115,-5.3831,-5.3794,-5.3759,-5.3708,-5.4111,-5.4111,-5.4406,-5.4409,-5.4411]},{"header":{"parameterUnit":"m.s-1","parameterCategory":1,"la1":30.2991,"la2":30.254,"lo1":-89.0895,"lo2":-89.0444,"dy":0.0017,"dx":0.0017,"nx":28,"ny":28,"refTime":"2023-10-12T09:00:00:Z","depth":0,"parameterNumber":3,"parameterNumberName":"V-component_of_WINDS"},"data":[0,0,0,0,0,0,0,0,0,0,0,0,0,0,0,0,0,0,0,0,0,0,0,0,0,0,0,0,0,0,0,0,0,0,0,0,0,0,0,0,0,0,0,0,0,0,0,0,0,0,0,0,0,0,0,0,0,0,-8.9735,-8.9734,0,-8.9715,-8.9714,-8.9714,-8.956,-8.9556,-8.9552,-8.9548,-8.9529,-8.9532,-8.9535,0,0,0,0,0,0,0,0,0,0,0,0,0,-8.9639,-8.9641,-8.9735,-8.9734,-8.9734,-8.9715,-8.9714,-8.9714,-8.956,-8.9556,-8.9551,-8.9547,-8.9528,-8.9532,-8.9535,0,0,0,0,0,0,0,0,0,0,0,0,0,-8.9656,-8.9642,-8.9735,-8.9655,-8.9648,-8.9715,-8.9714,-8.9714,-8.9561,-8.9556,-8.955,-8.9545,-8.9527,-8.9531,-8.9536,-8.9678,0,0,-8.955,-8.9552,0,0,0,0,0,0,0,0,-8.9655,-8.966,-8.9667,-8.9661,-8.9652,-8.9634,-8.9673,-8.9702,-8.9563,-8.9594,-8.9548,-8.9542,-8.9569,-8.9569,-8.9578,-8.9677,-8.9676,-8.955,-8.9553,-8.9555,-8.9556,0,0,0,0,0,0,0,-8.9654,-8.966,-8.9727,-8.9667,-8.9658,-8.962,-8.9616,-8.9678,-8.9614,-8.9591,-8.958,-8.9579,-8.9564,-8.9574,-8.9577,-8.9676,-8.955,-8.9554,-8.9557,-8.9559,-8.9889,-8.9894,0,0,0,0,0,0,-8.9664,-8.966,-8.9727,-8.9726,-8.964,-8.9626,-8.9622,-8.9646,-8.9613,-8.9602,-8.9584,-8.9572,-8.9569,-8.9572,-8.9575,-8.9738,-8.9555,-8.9559,-8.9562,-8.9883,-8.989,-8.9896,0,0,0,0,0,0,-8.9663,-8.9672,-8.9728,-8.969,-8.9694,-8.9634,-8.9662,-8.9648,-8.9658,-8.9608,-8.9595,-8.9607,-8.9565,-8.9569,-8.9653,-8.9735,-8.9561,-8.9565,-8.9875,-8.9885,-8.9893,-9.0065,0,0,0,0,0,0,-8.9661,-8.9672,-8.9726,-8.9692,-8.9697,-8.9807,-8.9667,-8.9652,-8.9667,-8.9651,-8.9626,-8.9616,-8.9561,-8.9647,-8.9658,-8.9738,-8.9569,-8.9868,-8.988,-8.989,-9.0052,-9.0079,-9.0103,0,0,0,0,0,-8.9658,-8.9776,-8.9729,-8.9738,-8.9763,-8.9812,-8.9814,-8.9748,-8.9674,-8.9727,-8.9694,-8.9617,-8.9725,-8.9657,-8.9668,-8.9751,-8.9862,-8.9876,-8.9889,-9.0041,-9.0074,-9.0102,0,0,0,0,0,0,-8.9821,-8.977,-8.9718,-8.9829,-8.9826,-8.9786,-8.9851,-8.9786,-8.9804,-8.9788,-8.9706,-8.9701,-8.9798,-8.9783,-8.9708,-8.9886,-8.978,-8.9797,-8.9892,-8.9923,-8.9947,-8.9948,-8.9573,0,0,0,0,0,-8.987,-8.9915,-8.9867,-8.997,-8.9971,-8.9912,-8.9931,-8.988,-8.9873,-8.9871,-8.9844,-8.9842,-8.9874,-8.9898,-8.9926,-9.005,-9.0041,-9.0112,-9.0137,-9.0158,-9.0173,-9.0235,-9.0266,-8.9941,-8.9941,-8.9941,0,0,-8.9972,-8.9949,-8.9982,-9.0002,-8.9993,-9.0041,-8.9911,-8.9967,-9.0001,-8.988,-8.9957,-8.9938,-8.9929,-9.0033,-9.0078,-9.0024,-9.0261,-9.0175,-9.0193,-9.0196,-9.0252,-9.0283,-9.0311,-8.995,-8.9949,-8.9947,0,0,-9.018,-9.0169,-9.0251,-9.0245,-9.0234,-9.0194,-9.0214,-9.0184,-9.0165,-9.0242,-9.0151,-9.019,-9.025,-9.0246,-9.0252,-9.0459,-9.0388,-9.0471,-9.0601,-9.0664,-9.0689,-9.0711,-9.0783,-9.081,-9.0486,-9.0486,-9.0486,0,-9.0308,-9.0375,-9.0302,-9.0363,-9.0374,-9.0266,-9.0348,-9.0346,-9.0345,-9.0355,-9.0294,-9.0365,-9.0352,-9.0453,-9.0503,-9.0512,-9.0532,-9.0472,-9.0691,-9.0713,-9.0733,-9.08,-9.0828,-9.0496,-9.0495,-9.0494,-9.0493,0,-9.0532,-9.058,-9.0648,-9.0648,-9.0667,-9.0739,-9.0676,-9.0703,-9.0651,-9.0617,-9.0695,-9.0676,-9.0696,-9.0717,-9.0667,-9.0811,-9.0777,-9.0706,-9.0598,-9.0775,-9.0837,-9.0862,-9.051,-9.0507,-9.0504,-9.0501,0,0,-9.0843,-9.0801,-9.0827,-9.0824,-9.0804,-9.0839,-9.0906,-9.0926,-9.095,-9.0953,-9.1006,-9.1058,-9.0991,-9.0998,-9.0947,-9.1002,-9.1165,-9.0923,-9.0921,-9.0967,-9.132,-9.1373,-9.1404,-9.1118,-9.1123,-9.1126,-9.132,0,-9.1041,-9.1152,-9.1087,-9.1207,-9.1249,-9.1147,-9.1205,-9.1198,-9.1169,-9.12,-9.1167,-9.1204,-9.1114,-9.1117,-9.1167,-9.1134,-9.1234,-9.112,-9.1166,-9.1168,-9.1169,-9.1437,-9.1493,-9.1677,-9.1344,-9.1348,-9.1351,0,-9.1288,-9.13,-9.1424,-9.1393,-9.1408,-9.1461,-9.1473,-9.1505,-9.1495,-9.1469,-9.1478,-9.1412,-9.1475,-9.137,-9.1455,-9.1378,-9.1393,-9.138,-9.1386,-9.1386,-9.1269,-9.1443,-9.1734,-9.1761,-9.1389,-9.1386,-9.1383,0,-9.1499,-9.1547,-9.1626,-9.1628,-9.1595,-9.1634,-9.1622,-9.1607,-9.1622,-9.1633,-9.1642,-9.1661,-9.1671,-9.1687,-9.1628,-9.1558,-9.1721,-9.1611,-9.17,-9.1702,-9.1738,-9.1736,-9.2034,-9.1752,-9.1751,-9.1751,-9.175,0,-9.1727,-9.1806,-9.172,-9.177,-9.1855,-9.178,-9.1867,-9.1844,-9.1831,-9.1873,-9.1787,-9.1829,-9.175,-9.1784,-9.1739,-9.1815,-9.1821,-9.1801,-9.1788,-9.1808,-9.181,-9.1815,-9.1801,-9.1758,-9.1756,-9.1755,-9.1754,0,-9.1977,-9.1923,-9.2003,-9.1964,-9.1956,-9.2021,-9.1988,-9.2031,-9.1995,-9.205,-9.2059,-9.2003,-9.2038,-9.1981,-9.2011,-9.198,-9.2085,-9.2053,-9.2088,-9.2078,-9.217,-9.2162,-9.248,-9.2518,-9.2213,-9.2216,-9.2219,0,-9.2125,-9.2183,-9.2151,-9.2172,-9.2165,-9.2201,-9.2216,-9.2145,-9.2164,-9.2157,-9.2201,-9.2229,-9.2247,-9.2308,-9.227,-9.2292,-9.2258,-9.2369,-9.2261,-9.2279,-9.2258,-9.2255,-9.2259,-9.239,-9.2394,-9.2397,-9.24,0,-9.2393,-9.2363,-9.2387,-9.2402,-9.2422,-9.243,-9.2433,-9.2456,-9.238,-9.2406,-9.244,-9.2455,-9.2483,-9.2512,-9.2524,-9.2511,-9.2444,-9.2434,-9.2455,-9.2476,-9.2493,-9.2483,-9.2146,-9.2427,-9.2424,-9.2422,-9.242,-9.2419,-9.2595,-9.2641,-9.2624,-9.2654,-9.2648,-9.2652,-9.269,-9.2658,-9.2685,-9.2702,-9.2659,-9.2704,-9.2691,-9.27,-9.2696,-9.2729,-9.2681,-9.2713,-9.272,-9.2729,-9.2742,-9.2489,-9.2732,-9.2731,-9.273,-9.2729,-9.2729,0,-9.2856,-9.284,-9.2868,-9.2873,-9.2896,-9.2829,-9.2828,-9.2852,-9.2892,-9.2886,-9.2905,-9.2944,-9.2971,-9.2936,-9.2956,-9.299,-9.2959,-9.2998,-9.2994,-9.2992,-9.2785,-9.2764,-9.3022,-9.3022,-9.3022,-9.3022,-9.3022,-9.3022,-9.2994,-9.3068,-9.3036,-9.3106,-9.3089,-9.3131,-9.3136,-9.3139,-9.3134,-9.3181,-9.3202,-9.3178,-9.316,-9.3179,-9.32,-9.3189,-9.32,-9.325,-9.3228,-9.3035,-9.3006,-9.2979,-9.2958,-9.3253,-9.3253,-9.343,-9.3432,-9.3433]}]]